Sanko Independence — A8QJ9 — position and weather

sailwx.info

Track history (hours):
 
Tides and Currents Weather Stations Pressure Air Temp Water Temp Dewpoint Dewpoint Depression Visibility Wind Speed Wind Dir Waves Ship Positions

Sanko Independence

Last reported at 2014-Sep-03 05:29 UTC. Time now 2014-Sep-03 07:01 UTC.
Position N 39°44' E 025°52'.

Length 174 m; draft 7.8 m.

Type: Ship (hazmat cat C). MMSI: 636013946.

Date/timePositionNaut miles runAvg speedWind from/ knotsBaromVisibWave heightAir tempDewpointWater temp
2014-Sep-03 05:29N 39°44' E 025°52'4 1.7
2014-Sep-03 03:18N 39°48' E 025°52'5 1.1
2014-Sep-02 22:26N 39°43' E 025°54'12714.3
2014-Sep-02 13:33N 37°52' E 024°35'1514.9
2014-Sep-02 12:33N 37°38' E 024°29'1515.0
2014-Sep-02 11:33N 37°25' E 024°18'1514.5
2014-Sep-02 10:33N 37°13' E 024°08'1414.5
2014-Sep-02 09:33N 37°01' E 023°58'1514.9
2014-Sep-02 08:33N 36°49' E 023°48'1514.7
2014-Sep-02 07:33N 36°35' E 023°40'6913.1
2014-Sep-02 02:17N 36°03' E 022°24'33815.4
2014-Sep-01 04:23N 36°15' E 015°25'1215.0
2014-Sep-01 03:34N 36°15' E 015°10'1514.8
2014-Sep-01 02:34N 36°17' E 014°52'1515.1
2014-Sep-01 01:34N 36°22' E 014°34'1515.1
2014-Sep-01 00:34N 36°27' E 014°16'1514.9
2014-Aug-31 23:34N 36°32' E 013°59'1515.2
2014-Aug-31 22:33N 36°37' E 013°41'1515.5
2014-Aug-31 21:34N 36°42' E 013°23'1515.2
2014-Aug-31 20:34N 36°47' E 013°05'1514.8
2014-Aug-31 19:34N 36°52' E 012°48'1514.7
2014-Aug-31 18:34N 36°57' E 012°30'1715.2
2014-Aug-31 17:28N 37°02' E 012°10'1314.8
2014-Aug-31 16:33N 37°05' E 011°54'1514.9
2014-Aug-31 15:34N 37°12' E 011°37'1515.1
2014-Aug-31 14:34N 37°18' E 011°20'1514.6
2014-Aug-31 13:34N 37°24' E 011°03'1514.8
2014-Aug-31 12:34N 37°27' E 010°45'1514.9
2014-Aug-31 11:33N 37°31' E 010°27'1515.0
2014-Aug-31 10:33N 37°34' E 010°08'1515.2
2014-Aug-31 09:33N 37°31' E 009°49'2115.4
2014-Aug-31 08:12N 37°25' E 009°24'1215.5
2014-Aug-31 07:26N 37°22' E 009°10'1415.6
2014-Aug-31 06:33N 37°20' E 008°53'1515.3
2014-Aug-31 05:33N 37°18' E 008°34'1514.9
2014-Aug-31 04:33N 37°18' E 008°15'1414.5
2014-Aug-31 03:34N 37°18' E 007°57'5114.8
2014-Aug-31 00:07N 37°18' E 006°53'1214.9
2014-Aug-30 23:20N 37°18' E 006°38'1214.9
2014-Aug-30 22:30N 37°18' E 006°23'1614.8
2014-Aug-30 21:25N 37°18' E 006°02'1614.5
2014-Aug-30 20:19N 37°18' E 005°42'1114.6
2014-Aug-30 19:32N 37°18' E 005°28'1814.8
2014-Aug-30 18:20N 37°18' E 005°06'1414.5
2014-Aug-30 17:22N 37°18' E 004°48'14614.8
2014-Aug-30 07:31N 36°58' E 001°47'6015.3
2014-Aug-30 03:33N 36°46' E 000°33'1515.1
2014-Aug-30 02:33N 36°42' E 000°15'1514.9
2014-Aug-30 01:33N 36°39' W 000°03'1514.5
2014-Aug-30 00:33N 36°36' W 000°21'1514.6
2014-Aug-29 23:33N 36°33' W 000°39'1514.6
2014-Aug-29 22:33N 36°31' W 000°57'1514.6
2014-Aug-29 21:33N 36°28' W 001°15'1514.7
2014-Aug-29 20:33N 36°25' W 001°33'1514.6
2014-Aug-29 19:33N 36°22' W 001°50'1514.8
2014-Aug-29 18:34N 36°19' W 002°08'1514.8
2014-Aug-29 17:33N 36°16' W 002°26'2214.9
2014-Aug-29 16:04N 36°12' W 002°53'119 4.3
2014-Aug-28 12:34N 36°00' W 005°20'10214.2
2014-Aug-28 05:21N 34°56' W 006°57'1214.7
2014-Aug-28 04:31N 34°46' W 007°06'2014.8
2014-Aug-28 03:10N 34°31' W 007°21'914.8
2014-Aug-28 02:33N 34°24' W 007°28'9510.5
2014-Aug-27 17:26N 33°08' W 008°38'0 0.0
2014-Aug-27 16:23N 33°08' W 008°38'0 0.0
2014-Aug-27 15:23N 33°08' W 008°38'0 0.0
2014-Aug-27 07:32N 33°08' W 008°38'0 0.0
2014-Aug-27 04:17N 33°08' W 008°38'0 0.0
2014-Aug-27 03:29N 33°08' W 008°38'0 0.0
2014-Aug-27 02:32N 33°08' W 008°38'0 0.0
2014-Aug-27 01:32N 33°08' W 008°38'0 0.0
2014-Aug-27 00:05N 33°08' W 008°38'4 0.1
2014-Aug-25 14:31N 33°07' W 008°43'  
Track history (hours):
 
Tides and Currents Weather Stations Pressure Air Temp Water Temp Dewpoint Dewpoint Depression Visibility Wind Speed Wind Dir Waves Ship Positions

Sanko Independence

Last reported at 2014-Sep-03 05:29 UTC. Time now 2014-Sep-03 07:01 UTC.
Position N 39°44' E 025°52'.

Length 174 m; draft 7.8 m.

Type: Ship (hazmat cat C). MMSI: 636013946.

Date/timePositionNaut miles runAvg speedWind from/ knotsBaromVisibWave heightAir tempDewpointWater temp
2014-Sep-03 05:29N 39°44' E 025°52'4 1.7
2014-Sep-03 03:18N 39°48' E 025°52'5 1.1
2014-Sep-02 22:26N 39°43' E 025°54'12714.3
2014-Sep-02 13:33N 37°52' E 024°35'1514.9
2014-Sep-02 12:33N 37°38' E 024°29'1515.0
2014-Sep-02 11:33N 37°25' E 024°18'1514.5
2014-Sep-02 10:33N 37°13' E 024°08'1414.5
2014-Sep-02 09:33N 37°01' E 023°58'1514.9
2014-Sep-02 08:33N 36°49' E 023°48'1514.7
2014-Sep-02 07:33N 36°35' E 023°40'6913.1
2014-Sep-02 02:17N 36°03' E 022°24'33815.4
2014-Sep-01 04:23N 36°15' E 015°25'1215.0
2014-Sep-01 03:34N 36°15' E 015°10'1514.8
2014-Sep-01 02:34N 36°17' E 014°52'1515.1
2014-Sep-01 01:34N 36°22' E 014°34'1515.1
2014-Sep-01 00:34N 36°27' E 014°16'1514.9
2014-Aug-31 23:34N 36°32' E 013°59'1515.2
2014-Aug-31 22:33N 36°37' E 013°41'1515.5
2014-Aug-31 21:34N 36°42' E 013°23'1515.2
2014-Aug-31 20:34N 36°47' E 013°05'1514.8
2014-Aug-31 19:34N 36°52' E 012°48'1514.7
2014-Aug-31 18:34N 36°57' E 012°30'1715.2
2014-Aug-31 17:28N 37°02' E 012°10'1314.8
2014-Aug-31 16:33N 37°05' E 011°54'1514.9
2014-Aug-31 15:34N 37°12' E 011°37'1515.1
2014-Aug-31 14:34N 37°18' E 011°20'1514.6
2014-Aug-31 13:34N 37°24' E 011°03'1514.8
2014-Aug-31 12:34N 37°27' E 010°45'1514.9
2014-Aug-31 11:33N 37°31' E 010°27'1515.0
2014-Aug-31 10:33N 37°34' E 010°08'1515.2
2014-Aug-31 09:33N 37°31' E 009°49'2115.4
2014-Aug-31 08:12N 37°25' E 009°24'1215.5
2014-Aug-31 07:26N 37°22' E 009°10'1415.6
2014-Aug-31 06:33N 37°20' E 008°53'1515.3
2014-Aug-31 05:33N 37°18' E 008°34'1514.9
2014-Aug-31 04:33N 37°18' E 008°15'1414.5
2014-Aug-31 03:34N 37°18' E 007°57'5114.8
2014-Aug-31 00:07N 37°18' E 006°53'1214.9
2014-Aug-30 23:20N 37°18' E 006°38'1214.9
2014-Aug-30 22:30N 37°18' E 006°23'1614.8
2014-Aug-30 21:25N 37°18' E 006°02'1614.5
2014-Aug-30 20:19N 37°18' E 005°42'1114.6
2014-Aug-30 19:32N 37°18' E 005°28'1814.8
2014-Aug-30 18:20N 37°18' E 005°06'1414.5
2014-Aug-30 17:22N 37°18' E 004°48'14614.8
2014-Aug-30 07:31N 36°58' E 001°47'6015.3
2014-Aug-30 03:33N 36°46' E 000°33'1515.1
2014-Aug-30 02:33N 36°42' E 000°15'1514.9
2014-Aug-30 01:33N 36°39' W 000°03'1514.5
2014-Aug-30 00:33N 36°36' W 000°21'1514.6
2014-Aug-29 23:33N 36°33' W 000°39'1514.6
2014-Aug-29 22:33N 36°31' W 000°57'1514.6
2014-Aug-29 21:33N 36°28' W 001°15'1514.7
2014-Aug-29 20:33N 36°25' W 001°33'1514.6
2014-Aug-29 19:33N 36°22' W 001°50'1514.8
2014-Aug-29 18:34N 36°19' W 002°08'1514.8
2014-Aug-29 17:33N 36°16' W 002°26'2214.9
2014-Aug-29 16:04N 36°12' W 002°53'119 4.3
2014-Aug-28 12:34N 36°00' W 005°20'10214.2
2014-Aug-28 05:21N 34°56' W 006°57'1214.7
2014-Aug-28 04:31N 34°46' W 007°06'2014.8
2014-Aug-28 03:10N 34°31' W 007°21'914.8
2014-Aug-28 02:33N 34°24' W 007°28'9510.5
2014-Aug-27 17:26N 33°08' W 008°38'0 0.0
2014-Aug-27 16:23N 33°08' W 008°38'0 0.0
2014-Aug-27 15:23N 33°08' W 008°38'0 0.0
2014-Aug-27 07:32N 33°08' W 008°38'0 0.0
2014-Aug-27 04:17N 33°08' W 008°38'0 0.0
2014-Aug-27 03:29N 33°08' W 008°38'0 0.0
2014-Aug-27 02:32N 33°08' W 008°38'0 0.0
2014-Aug-27 01:32N 33°08' W 008°38'0 0.0
2014-Aug-27 00:05N 33°08' W 008°38'4 0.1
2014-Aug-25 14:31N 33°07' W 008°43'  

Dump ship's entire track history